When you browse on this site, cookies collect data to enhance your experience and personalize the content and advertising you see.
Visit our Privacy Policy to learn more. By continuing to use the site, you agree to this use of cookies and data.
  • In Czech Republic
  • List of Countries
  • For 7 days
  • Water Temperature
  • Satellite Maps
  • Weather Map
  • Weather Widgets
  • user-avatar
    Login

    Hourly Weather Pogoreloe Gorodische

    Today, 19 February, Tuesday

    Time Temperature Precipitation Wind Pressure Humidity
    00:00 -9°C° 0 mm 2 mps 747 mmHg 90%
    01:00 -9°C° 0 mm 2 mps 747 mmHg 90%
    02:00 -9°C° 0 mm 2 mps 746 mmHg 91%
    03:00 -10°C° 0 mm 3 mps 746 mmHg 89%
    04:00 -10°C° 0 mm 4 mps 745 mmHg 88%
    05:00 -10°C° 0 mm 4 mps 745 mmHg 87%
    06:00 -11°C° 0 mm 5 mps 744 mmHg 84%
    07:00 -10°C° 0 mm 5 mps 744 mmHg 81%
    08:00 -10°C° 0 mm 6 mps 743 mmHg 79%
    09:00 -8°C° 0 mm 6 mps 743 mmHg 76%
    10:00 -6°C° 0 mm 6 mps 742 mmHg 73%
    11:00 -5°C° 0 mm 6 mps 742 mmHg 71%
    12:00 -4°C° 0 mm 6 mps 741 mmHg 72%
    13:00 -3°C° 0 mm 6 mps 741 mmHg 73%
    14:00 -2°C° 0 mm 6 mps 740 mmHg 74%
    15:00 -2°C° 0 mm 5 mps 740 mmHg 75%
    16:00 -4°C° 0 mm 5 mps 739 mmHg 77%
    17:00 -4°C° 0 mm 5 mps 739 mmHg 78%
    18:00 -4°C° 0 mm 5 mps 738 mmHg 81%
    19:00 -5°C° 0 mm 6 mps 738 mmHg 83%
    20:00 -5°C° 0 mm 6 mps 737 mmHg 85%
    21:00 -4°C° 0 mm 6 mps 736 mmHg 86%
    22:00 -4°C° 0 mm 6 mps 736 mmHg 88%
    23:00 -3°C° 0 mm 6 mps 735 mmHg 89%

    Tomorrow, 20 February, Wednesday

    Time Temperature Precipitation Wind Pressure Humidity
    00:00 -3°C° 0 mm 6 mps 734 mmHg 89%
    01:00 -3°C° 0 mm 6 mps 734 mmHg 89%
    02:00 -2°C° 0 mm 6 mps 733 mmHg 88%
    03:00 -2°C° 0.1 mm 6 mps 732 mmHg 89%
    04:00 -1°C° 0.1 mm 5 mps 732 mmHg 90%
    05:00 -1°C° 0.1 mm 5 mps 731 mmHg 91%
    06:00 -1°C° 0.1 mm 5 mps 731 mmHg 91%
    07:00 -1°C° 0.1 mm 5 mps 731 mmHg 91%
    08:00 -1°C° 0.1 mm 5 mps 731 mmHg 91%
    09:00 0°C° 0 mm 5 mps 731 mmHg 92%
    10:00 0°C° 0 mm 5 mps 731 mmHg 93%
    11:00 0°C° 0 mm 5 mps 731 mmHg 93%
    12:00 0°C° 0.1 mm 5 mps 731 mmHg 93%
    13:00 0°C° 0.1 mm 5 mps 731 mmHg 92%
    14:00 0°C° 0.1 mm 5 mps 731 mmHg 92%
    15:00 0°C° 0 mm 5 mps 730 mmHg 92%
    16:00 0°C° 0 mm 4 mps 730 mmHg 91%
    17:00 -1°C° 0 mm 4 mps 730 mmHg 91%
    18:00 -1°C° 0.1 mm 4 mps 730 mmHg 90%
    19:00 -1°C° 0.1 mm 5 mps 729 mmHg 90%
    20:00 -1°C° 0.1 mm 5 mps 729 mmHg 90%
    21:00 -1°C° 0.2 mm 4 mps 729 mmHg 90%
    22:00 -1°C° 0.2 mm 4 mps 728 mmHg 90%
    23:00 -1°C° 0.2 mm 4 mps 728 mmHg 91%

    Day after tomorrow, 21 February, Thursday

    Time Temperature Precipitation Wind Pressure Humidity
    00:00 -2°C° 0 mm 4 mps 728 mmHg 90%
    01:00 -3°C° 0 mm 4 mps 728 mmHg 90%
    02:00 -3°C° 0 mm 4 mps 728 mmHg 90%
    03:00 -3°C° 0.1 mm 4 mps 729 mmHg 90%
    04:00 -3°C° 0.1 mm 4 mps 729 mmHg 90%
    05:00 -4°C° 0.1 mm 5 mps 729 mmHg 90%
    06:00 -5°C° 0.3 mm 5 mps 729 mmHg 88%
    07:00 -6°C° 0.3 mm 6 mps 730 mmHg 86%
    08:00 -6°C° 0.3 mm 6 mps 730 mmHg 84%
    09:00 -6°C° 0.2 mm 6 mps 731 mmHg 84%
    10:00 -6°C° 0.2 mm 6 mps 731 mmHg 83%
    11:00 -6°C° 0.2 mm 6 mps 732 mmHg 82%
    12:00 -6°C° 0.2 mm 6 mps 732 mmHg 82%
    13:00 -6°C° 0.2 mm 6 mps 733 mmHg 83%
    14:00 -7°C° 0.2 mm 7 mps 734 mmHg 83%
    15:00 -8°C° 0.2 mm 7 mps 734 mmHg 83%
    16:00 -9°C° 0.2 mm 7 mps 735 mmHg 82%
    17:00 -9°C° 0.2 mm 7 mps 736 mmHg 82%
    18:00 -11°C° 0.1 mm 7 mps 737 mmHg 81%
    19:00 -12°C° 0.1 mm 7 mps 738 mmHg 80%
    20:00 -12°C° 0.1 mm 7 mps 739 mmHg 79%
    21:00 -13°C° 0 mm 7 mps 740 mmHg 79%
    22:00 -13°C° 0 mm 7 mps 741 mmHg 78%
    23:00 -14°C° 0 mm 6 mps 741 mmHg 77%

    22 February, Friday

    Time Temperature Precipitation Wind Pressure Humidity
    00:00 -14°C° 0 mm 6 mps 742 mmHg 77%
    01:00 -15°C° 0 mm 7 mps 742 mmHg 77%
    02:00 -15°C° 0 mm 7 mps 743 mmHg 77%
    03:00 -15°C° 0 mm 6 mps 744 mmHg 77%
    04:00 -16°C° 0 mm 6 mps 744 mmHg 77%
    05:00 -16°C° 0 mm 6 mps 745 mmHg 78%
    06:00 -16°C° 0 mm 6 mps 745 mmHg 76%
    07:00 -16°C° 0 mm 6 mps 746 mmHg 75%
    08:00 -16°C° 0 mm 6 mps 746 mmHg 74%
    09:00 -15°C° 0 mm 6 mps 746 mmHg 72%
    10:00 -14°C° 0 mm 7 mps 747 mmHg 71%
    11:00 -13°C° 0 mm 7 mps 747 mmHg 69%
    12:00 -13°C° 0 mm 7 mps 747 mmHg 70%
    13:00 -13°C° 0 mm 7 mps 747 mmHg 70%
    14:00 -12°C° 0 mm 7 mps 747 mmHg 71%
    15:00 -13°C° 0 mm 7 mps 747 mmHg 72%
    16:00 -14°C° 0 mm 6 mps 748 mmHg 74%
    17:00 -14°C° 0 mm 6 mps 748 mmHg 75%
    18:00 -15°C° 0 mm 6 mps 749 mmHg 75%
    19:00 -15°C° 0 mm 6 mps 749 mmHg 76%
    20:00 -16°C° 0 mm 6 mps 750 mmHg 76%
    21:00 -16°C° 0 mm 6 mps 750 mmHg 77%
    22:00 -16°C° 0 mm 6 mps 751 mmHg 79%
    23:00 -17°C° 0 mm 6 mps 751 mmHg 80%

    23 February, Saturday

    Time Temperature Precipitation Wind Pressure Humidity
    00:00 -17°C° 0 mm 5 mps 751 mmHg 81%
    01:00 -17°C° 0 mm 5 mps 752 mmHg 81%
    02:00 -17°C° 0 mm 5 mps 752 mmHg 82%
    03:00 -17°C° 0 mm 5 mps 752 mmHg 83%
    04:00 -17°C° 0 mm 5 mps 753 mmHg 84%
    05:00 -16°C° 0 mm 4 mps 753 mmHg 85%
    06:00 -16°C° 0 mm 4 mps 753 mmHg 85%
    07:00 -17°C° 0 mm 4 mps 753 mmHg 86%
    08:00 -17°C° 0 mm 4 mps 754 mmHg 87%
    09:00 -16°C° 0 mm 4 mps 754 mmHg 85%
    10:00 -15°C° 0 mm 4 mps 754 mmHg 83%
    11:00 -15°C° 0 mm 4 mps 754 mmHg 80%
    12:00 -14°C° 0 mm 4 mps 754 mmHg 78%
    13:00 -12°C° 0 mm 4 mps 754 mmHg 76%
    14:00 -12°C° 0 mm 3 mps 754 mmHg 74%
    15:00 -12°C° 0 mm 3 mps 754 mmHg 77%
    16:00 -13°C° 0 mm 3 mps 754 mmHg 81%
    17:00 -12°C° 0 mm 2 mps 755 mmHg 84%
    18:00 -13°C° 0 mm 2 mps 755 mmHg 85%
    19:00 -13°C° 0 mm 2 mps 755 mmHg 87%
    20:00 -13°C° 0 mm 2 mps 756 mmHg 89%
    21:00 -13°C° 0 mm 2 mps 756 mmHg 89%
    22:00 -11°C° 0 mm 1 mps 756 mmHg 89%
    23:00 -11°C° 0 mm 1 mps 756 mmHg 90%

    24 February, Sunday

    Time Temperature Precipitation Wind Pressure Humidity
    00:00 -11°C° 0 mm 1 mps 756 mmHg 89%
    01:00 -11°C° 0 mm 1 mps 756 mmHg 88%
    02:00 -11°C° 0 mm 1 mps 757 mmHg 87%
    03:00 -11°C° 0 mm 1 mps 756 mmHg 86%
    04:00 -11°C° 0 mm 1 mps 756 mmHg 85%
    05:00 -13°C° 0 mm 2 mps 756 mmHg 84%
    06:00 -13°C° 0 mm 2 mps 756 mmHg 83%
    07:00 -13°C° 0 mm 2 mps 757 mmHg 83%
    08:00 -12°C° 0 mm 2 mps 757 mmHg 82%
    09:00 -10°C° 0 mm 2 mps 757 mmHg 83%
    10:00 -8°C° 0 mm 2 mps 757 mmHg 83%
    11:00 -7°C° 0 mm 2 mps 757 mmHg 83%
    12:00 -6°C° 0 mm 2 mps 756 mmHg 84%
    13:00 -5°C° 0 mm 2 mps 756 mmHg 84%
    14:00 -6°C° 0 mm 3 mps 756 mmHg 85%
    15:00 -5°C° 0 mm 2 mps 755 mmHg 88%
    16:00 -5°C° 0 mm 2 mps 755 mmHg 90%
    17:00 -5°C° 0 mm 2 mps 755 mmHg 92%
    18:00 -5°C° 0 mm 2 mps 754 mmHg 93%
    19:00 -6°C° 0 mm 3 mps 754 mmHg 93%
    20:00 -6°C° 0 mm 3 mps 754 mmHg 93%
    21:00 -6°C° 0 mm 3 mps 753 mmHg 94%
    22:00 -6°C° 0 mm 3 mps 753 mmHg 94%
    23:00 -7°C° 0 mm 4 mps 753 mmHg 94%
    Show more